NT2C Weather Reports


Display with metric or nautical units.
time (UTC)temp
F
wind
direction
speed
MPH
gust
MPH
rain 1hr
in
rain 24hr
in
rain mn
in
humidity
%
barometer
mb
20260831022028 74 72 0.0 0.0 0.00 0.00 0.00 84 1012.1
20260831021528 74 72 0.0 0.0 0.00 0.00 0.00 84 1012.1
20260831021028 74 72 0.0 0.0 0.00 0.00 0.00 84 1012.2
20260831020528 74 72 0.0 0.0 0.00 0.00 0.00 83 1012.1
20260831020028 74 72 0.0 0.0 0.00 0.00 0.00 83 1012.1
20260831015527 74 72 0.0 0.0 0.00 0.00 0.00 83 1012.1
20260831015027 74 72 0.0 0.0 0.00 0.00 0.00 83 1012.1
20260831014533 74 72 0.0 0.0 0.00 0.00 0.00 82 1012.2
20260831014027 74 72 0.0 0.0 0.00 0.00 0.00 82 1012.1
20260831013527 75 72 0.0 0.0 0.00 0.00 0.00 82 1012.2
20260831013027 75 72 0.0 1.0 0.00 0.00 0.00 82 1012.1
20260831012527 75 72 0.0 1.0 0.00 0.00 0.00 82 1012.1
20260831012026 75 72 0.0 1.0 0.00 0.00 0.00 82 1012.1
20260831011534 75 72 0.0 1.0 0.00 0.00 0.00 81 1012.1
20260831011026 75 72 0.0 1.0 0.00 0.00 0.00 82 1012.0
20260831010526 75 71 0.0 1.0 0.00 0.00 0.00 81 1012.0
20260831010026 75 69 0.0 3.0 0.00 0.00 0.00 81 1012.0
20260831005520 76 4 0.0 3.0 0.00 0.00 0.00 80 1011.9
20260831005020 76 46 0.0 2.0 0.00 0.00 0.00 80 1011.8
20260831004520 77 27 0.0 3.0 0.00 0.00 0.00 79 1011.8
20260831004020 77 34 0.0 2.0 0.00 0.00 0.00 79 1011.7
20260831003520 77 354 0.0 2.0 0.00 0.00 0.00 78 1011.7
20260831003020 78 316 0.0 2.0 0.00 0.00 0.00 77 1011.7
20260831002520 78 224 0.0 1.0 0.00 0.00 0.00 77 1011.4
20260831002019 78 224 0.0 1.0 0.00 0.00 0.00 77 1011.3
20260831001519 78 223 0.0 2.0 0.00 0.00 0.00 76 1011.2
20260831001020 78 210 0.0 3.0 0.00 0.00 0.00 76 1011.0
20260831000519 77 172 0.0 3.0 0.00 0.00 0.00 77 1011.2
20260831000019 77 190 0.0 1.0 0.00 0.00 0.00 77 1011.2
20260830235518 77 167 0.0 0.0 0.00 0.00 0.00 77 1011.3
20260830235020 77 167 0.0 2.0 0.00 0.00 0.00 76 1011.3
20260830234519 78 174 0.0 3.0 0.00 0.00 0.00 75 1011.4
20260830234018 78 238 0.0 6.0 0.00 0.00 0.00 75 1011.6
20260830233517 79 233 0.0 7.0 0.00 0.00 0.00 74 1011.7
20260830233019 79 285 2.0 8.0 0.00 0.00 0.00 73 1011.8
20260830232517 80 275 2.0 11.0 0.00 0.00 0.00 74 1011.9
20260830232016 81 205 4.0 11.0 0.00 0.00 0.00 73 1011.9
20260830231516 82 308 2.0 8.0 0.00 0.00 0.00 73 1011.9
20260830231020 82 240 3.0 7.0 0.00 0.00 0.00 73 1011.9
20260830230520 83 212 0.0 4.0 0.00 0.00 0.00 74 1011.9
20260830230016 83 242 1.0 3.0 0.00 0.00 0.00 73 1011.8
20260830225516 83 238 1.0 4.0 0.00 0.00 0.00 73 1011.7
20260830225015 83 220 0.0 4.0 0.00 0.00 0.00 73 1011.6
20260830224515 83 243 0.0 2.0 0.00 0.00 0.00 73 1011.5
20260830224015 84 243 0.0 2.0 0.00 0.00 0.00 72 1011.4
20260830223515 84 231 0.0 2.0 0.00 0.00 0.00 72 1011.4
20260830223015 84 232 0.0 2.0 0.00 0.00 0.00 72 1011.2
20260830222514 84 203 0.0 4.0 0.00 0.00 0.00 71 1011.1
20260830222015 84 205 1.0 4.0 0.00 0.00 0.00 71 1011.2
20260830221514 84 214 1.0 5.0 0.00 0.00 0.00 70 1011.1
20260830221017 84 203 2.0 5.0 0.00 0.00 0.00 70 1011.1
20260830220514 85 221 1.0 4.0 0.00 0.00 0.00 70 1011.2
20260830220019 85 227 1.0 4.0 0.00 0.00 0.00 70 1011.1
20260830215513 85 171 1.0 6.0 0.00 0.00 0.00 69 1011.1
20260830215013 85 222 3.0 6.0 0.00 0.00 0.00 68 1011.2
20260830214512 86 210 1.0 8.0 0.00 0.00 0.00 68 1011.0
20260830214112 86 184 3.0 8.0 0.00 0.00 0.00 67 1011.1
20260830213512 87 202 1.0 10.0 0.00 0.00 0.00 67 1011.1
20260830213011 87 213 5.0 10.0 0.00 0.00 0.00 66 1011.1
20260830212512 87 181 3.0 9.0 0.00 0.00 0.00 66 1011.1
20260830212012 87 170 4.0 9.0 0.00 0.00 0.00 67 1011.1
20260830211515 87 155 4.0 10.0 0.00 0.00 0.00 66 1011.1
20260830211011 87 221 3.0 10.0 0.00 0.00 0.00 67 1011.0
20260830210511 87 224 3.0 7.0 0.00 0.00 0.00 67 1010.9
20260830210011 87 146 2.0 9.0 0.00 0.00 0.00 67 1011.0
20260830205511 87 202 5.0 9.0 0.00 0.00 0.00 67 1010.9
20260830205009 87 218 4.0 9.0 0.00 0.00 0.00 67 1010.9
20260830204509 87 223 4.0 11.0 0.00 0.00 0.00 67 1010.9
20260830204009 87 235 4.0 11.0 0.00 0.00 0.00 67 1010.9
20260830203509 87 231 3.0 7.0 0.00 0.00 0.00 67 1011.0
20260830203010 87 205 3.0 9.0 0.00 0.00 0.00 67 1011.1
20260830202511 87 237 4.0 9.0 0.00 0.00 0.00 67 1011.1
20260830202008 87 160 4.0 9.0 0.00 0.00 0.00 66 1011.2
20260830201508 88 168 4.0 7.0 0.00 0.00 0.00 66 1011.3
20260830201106 87 120 2.0 8.0 0.00 0.00 0.00 67 1011.3
20260830200506 87 186 3.0 13.0 0.00 0.00 0.00 67 1011.4
20260830200006 87 231 6.0 13.0 0.00 0.00 0.00 66 1011.3
20260830195505 87 231 3.0 10.0 0.00 0.00 0.00 68 1011.3
20260830195005 87 239 4.0 12.0 0.00 0.00 0.00 67 1011.4
20260830194505 87 165 6.0 13.0 0.00 0.00 0.00 67 1011.4
20260830194010 88 231 4.0 9.0 0.00 0.00 0.00 66 1011.5
20260830193504 87 147 3.0 9.0 0.00 0.00 0.00 67 1011.4
20260830193009 87 229 4.0 10.0 0.00 0.00 0.00 67 1011.4
20260830192502 87 207 5.0 13.0 0.00 0.00 0.00 67 1011.6
20260830192002 87 224 6.0 13.0 0.00 0.00 0.00 67 1011.7
20260830191505 87 244 4.0 9.0 0.00 0.00 0.00 67 1011.8
20260830191000 87 195 5.0 9.0 0.00 0.00 0.00 67 1011.9
20260830190600 87 218 3.0 9.0 0.00 0.00 0.00 68 1012.0
20260830190059 87 230 4.0 9.0 0.00 0.00 0.00 67 1012.1
20260830185601 86 176 4.0 11.0 0.00 0.00 0.00 69 1012.4
20260830185057 86 248 6.0 11.0 0.00 0.00 0.00 68 1012.4
20260830184556 86 236 4.0 10.0 0.00 0.00 0.00 68 1012.5
20260830184054 86 201 2.0 11.0 0.00 0.00 0.00 70 1012.7
20260830183555 86 173 6.0 11.0 0.00 0.00 0.00 68 1012.6
20260830183056 86 311 3.0 11.0 0.00 0.00 0.00 69 1012.8
20260830182555 86 191 4.0 9.0 0.00 0.00 0.00 69 1012.8
20260830182053 86 186 4.0 11.0 0.00 0.00 0.00 68 1012.9
20260830181552 86 204 5.0 8.0 0.00 0.00 0.00 69 1013.0
20260830181051 86 216 2.0 9.0 0.00 0.00 0.00 70 1013.1
20260830180549 85 217 2.0 9.0 0.00 0.00 0.00 70 1013.1
20260830180057 85 211 3.0 10.0 0.00 0.00 0.00 70 1013.3
20260830175547 85 243 5.0 11.0 0.00 0.00 0.00 70 1013.4
20260830175049 85 225 3.0 11.0 0.00 0.00 0.00 70 1013.5
20260830174554 85 233 1.0 8.0 0.00 0.00 0.00 72 1013.6
20260830174045 84 205 2.0 8.0 0.00 0.00 0.00 72 1013.6
20260830173542 84 162 2.0 8.0 0.00 0.00 0.00 72 1013.7
20260830173055 84 203 4.0 9.0 0.00 0.00 0.00 72 1013.8
20260830172542 84 240 4.0 11.0 0.00 0.00 0.00 72 1013.8
20260830172041 83 224 5.0 11.0 0.00 0.00 0.00 73 1013.9
20260830171540 83 249 2.0 11.0 0.00 0.00 0.00 74 1013.9
20260830171039 83 221 3.0 11.0 0.00 0.00 0.00 74 1014.0
20260830170539 83 271 3.0 6.0 0.00 0.00 0.00 72 1014.1
20260830170037 83 219 2.0 9.0 0.00 0.00 0.00 73 1014.1
20260830165537 82 221 5.0 11.0 0.00 0.00 0.00 73 1014.2
20260830165036 82 117 5.0 11.0 0.00 0.00 0.00 73 1014.3
20260830164539 82 168 4.0 11.0 0.00 0.00 0.00 74 1014.3
20260830164034 82 163 7.0 14.0 0.00 0.00 0.00 74 1014.4
20260830163533 81 242 5.0 14.0 0.00 0.00 0.00 74 1014.4
20260830163036 81 232 4.0 11.0 0.00 0.00 0.00 75 1014.4
20260830162533 81 190 4.0 11.0 0.00 0.00 0.00 75 1014.5
20260830162031 81 237 5.0 11.0 0.00 0.00 0.00 74 1014.6
20260830161535 81 219 5.0 14.0 0.00 0.00 0.00 74 1014.7
20260830161132 81 236 5.0 14.0 0.00 0.00 0.00 75 1014.6
20260830160530 81 220 5.0 9.0 0.00 0.00 0.00 76 1014.6
20260830160030 81 237 3.0 10.0 0.00 0.00 0.00 77 1014.6
20260830155529 80 240 4.0 13.0 0.00 0.00 0.00 77 1014.7
20260830155129 80 234 8.0 13.0 0.00 0.00 0.00 77 1014.7
20260830154528 80 243 6.0 12.0 0.00 0.00 0.00 77 1014.7
20260830154028 81 245 3.0 9.0 0.00 0.00 0.00 77 1014.7
20260830153527 80 224 4.0 12.0 0.00 0.00 0.00 77 1014.8
20260830153027 80 206 6.0 12.0 0.00 0.00 0.00 77 1014.8
20260830152525 80 224 2.0 10.0 0.00 0.00 0.00 78 1014.8
20260830152025 79 224 2.0 8.0 0.00 0.00 0.00 78 1014.8
20260830151525 79 207 4.0 8.0 0.00 0.00 0.00 78 1014.8
20260830151029 79 232 4.0 10.0 0.00 0.00 0.00 78 1014.9
20260830150525 79 257 2.0 10.0 0.00 0.00 0.00 79 1014.9
20260830150030 80 231 4.0 10.0 0.00 0.00 0.00 77 1014.8
20260830145524 80 233 3.0 8.0 0.00 0.00 0.00 78 1014.7
20260830145022 80 168 4.0 8.0 0.00 0.00 0.00 78 1014.7
20260830144529 79 246 3.0 11.0 0.00 0.00 0.00 81 1014.6
20260830144020 78 176 5.0 11.0 0.00 0.00 0.00 81 1014.7
20260830143521 78 232 3.0 9.0 0.00 0.00 0.00 83 1014.8
20260830143018 77 181 4.0 8.0 0.00 0.00 0.00 83 1014.8
20260830142517 77 173 3.0 7.0 0.00 0.00 0.00 84 1014.8
20260830142016 77 201 3.0 7.0 0.00 0.00 0.00 84 1015.0
20260830141534 76 233 3.0 7.0 0.00 0.00 0.00 85 1015.0
20260830141015 76 223 3.0 10.0 0.00 0.00 0.00 85 1015.1
20260830140515 77 213 4.0 10.0 0.00 0.00 0.00 84 1015.0
20260830140014 76 238 3.0 8.0 0.00 0.00 0.00 86 1015.0
20260830135515 76 203 2.0 5.0 0.00 0.00 0.00 86 1015.0
20260830135012 75 224 3.0 7.0 0.00 0.00 0.00 87 1015.0
20260830134511 75 213 3.0 8.0 0.00 0.00 0.00 87 1015.0
20260830134011 75 239 4.0 7.0 0.00 0.00 0.00 87 1015.1
20260830133512 75 231 3.0 8.0 0.00 0.00 0.00 88 1015.0
20260830133010 75 233 4.0 8.0 0.00 0.00 0.00 88 1015.0
20260830132509 75 215 3.0 9.0 0.00 0.00 0.00 89 1015.1
20260830132009 75 207 4.0 9.0 0.00 0.00 0.00 90 1015.0
20260830131509 74 191 1.0 6.0 0.00 0.00 0.00 92 1015.0
20260830131005 73 231 3.0 7.0 0.00 0.00 0.00 93 1015.2
20260830130504 73 251 2.0 7.0 0.00 0.00 0.00 94 1015.3
20260830130003 72 239 3.0 6.0 0.00 0.00 0.00 95 1015.4
20260830125501 72 200 2.0 6.0 0.00 0.00 0.00 95 1015.3
20260830125100 72 203 1.0 5.0 0.00 0.00 0.00 96 1015.5
20260830124620 71 224 1.0 6.0 0.00 0.00 0.00 96 1015.5
20260830124058 71 222 1.0 6.0 0.00 0.00 0.00 96 1015.5
20260830123557 71 194 2.0 5.0 0.00 0.00 0.00 96 1015.4
20260830123103 70 207 2.0 4.0 0.00 0.00 0.00 96 1015.5
20260830122556 70 208 2.0 6.0 0.00 0.00 0.00 96 1015.6
20260830122054 70 218 2.0 5.0 0.00 0.00 0.00 96 1015.6
20260830121556 70 217 2.0 7.0 0.00 0.00 0.00 96 1015.8
20260830121101 70 190 2.0 5.0 0.00 0.00 0.00 96 1015.8
20260830120553 70 204 1.0 5.0 0.00 0.00 0.00 96 1015.8
20260830120056 70 228 1.0 5.0 0.00 0.00 0.00 96 1015.9
20260830115552 70 181 1.0 5.0 0.00 0.00 0.00 96 1016.0
20260830115051 70 212 2.0 5.0 0.00 0.00 0.00 96 1016.0
20260830114606 70 210 0.0 3.0 0.00 0.00 0.00 96 1015.9
20260830114049 69 190 0.0 3.0 0.00 0.00 0.00 96 1015.9
20260830113554 69 219 1.0 3.0 0.00 0.00 0.00 96 1015.8
20260830113051 69 186 0.0 3.0 0.00 0.00 0.00 96 1015.7
20260830112549 69 204 0.0 3.0 0.00 0.00 0.00 96 1015.7
20260830112050 69 207 0.0 2.0 0.00 0.00 0.00 96 1015.7
20260830111549 69 229 0.0 1.0 0.00 0.00 0.00 96 1015.7
20260830111048 69 216 0.0 1.0 0.00 0.00 0.00 95 1015.7
20260830110548 69 216 0.0 1.0 0.00 0.00 0.00 95 1015.6
20260830110148 69 216 0.0 1.0 0.00 0.00 0.00 95 1015.5
20260830105547 69 221 0.0 0.0 0.00 0.00 0.00 95 1015.6
20260830105047 69 222 0.0 1.0 0.00 0.00 0.00 95 1015.6
20260830104554 69 222 0.0 1.0 0.00 0.00 0.00 95 1015.6
20260830104047 69 210 0.0 1.0 0.00 0.00 0.00 95 1015.6
20260830103547 69 233 0.0 1.0 0.00 0.00 0.00 95 1015.7
20260830103047 69 233 0.0 2.0 0.00 0.00 0.00 95 1015.6
20260830102549 69 231 0.0 2.0 0.00 0.00 0.00 95 1015.4
20260830102045 69 233 0.0 2.0 0.00 0.00 0.00 95 1015.5
20260830101545 69 238 0.0 3.0 0.00 0.00 0.00 95 1015.4
20260830101045 69 218 0.0 4.0 0.00 0.00 0.00 95 1015.3
20260830100548 69 208 0.0 2.0 0.00 0.00 0.00 95 1015.3
20260830100046 69 195 0.0 2.0 0.00 0.00 0.00 95 1015.3
20260830095544 69 214 0.0 2.0 0.00 0.00 0.00 95 1015.4
20260830095044 69 233 0.0 4.0 0.00 0.00 0.00 95 1015.5
20260830094544 69 220 1.0 4.0 0.00 0.00 0.00 95 1015.3
20260830094044 69 200 0.0 3.0 0.00 0.00 0.00 95 1015.4
20260830093544 69 241 0.0 5.0 0.00 0.00 0.00 95 1015.3
20260830093043 69 206 2.0 5.0 0.00 0.00 0.00 95 1015.3
20260830092543 69 198 1.0 4.0 0.00 0.00 0.00 95 1015.2
20260830092043 69 235 1.0 3.0 0.00 0.00 0.00 94 1015.4
20260830091643 69 212 1.0 3.0 0.00 0.00 0.00 94 1015.4
20260830091045 69 170 0.0 3.0 0.00 0.00 0.00 94 1015.2
20260830090545 69 236 0.0 3.0 0.00 0.00 0.00 94 1015.1
20260830090057 69 243 0.0 2.0 0.00 0.00 0.00 94 1015.2
20260830085545 69 213 0.0 2.0 0.00 0.00 0.00 94 1015.1
20260830085042 69 234 0.0 2.0 0.00 0.00 0.00 94 1015.0
20260830084540 69 248 0.0 3.0 0.00 0.00 0.00 94 1015.1
20260830084040 68 195 0.0 3.0 0.00 0.00 0.00 94 1015.1
20260830083540 68 238 1.0 3.0 0.00 0.00 0.00 94 1015.1
20260830083040 68 233 0.0 2.0 0.00 0.00 0.00 94 1015.0
20260830082541 68 236 0.0 1.0 0.00 0.00 0.00 94 1015.0
20260830082039 68 226 0.0 3.0 0.00 0.00 0.00 94 1015.1
20260830081542 68 192 0.0 3.0 0.00 0.00 0.00 94 1015.2
20260830081038 68 205 0.0 2.0 0.00 0.00 0.00 94 1015.2
20260830080538 68 233 0.0 1.0 0.00 0.00 0.00 93 1015.3
20260830080037 68 233 0.0 1.0 0.00 0.00 0.00 93 1015.3
20260830075537 68 233 0.0 0.0 0.00 0.00 0.00 93 1015.3